Theta_e
298 298 298 298 298 298 298 298 298 298 297 297 297 296 296 296 296 296 296 296 297 298 300 300 300 301 301 301 302 303 306 307 307 307 308 309 310 310 312 312 312 312 311
298 298 297 297 298 297 297 297 296 296 296 295 295 295 295 296 296 296 296 296 296 297 298 299 300 300 301 301 302 304 306 307 307 305 308 309 309 310 312 313 312 312 312
297 297 297 297 297 296 296 295 295 294 295 295 295 296 295 296 296 296 296 296 296 296 297 299 299 300 301 301 302 304 306 306 305 307 308 308 309 310 311 313 313 311 310
297 297 296 296 296 295 294 294 294 294 295 295 295 295 295 295 296 296 296 296 296 296 296 298 299 300 301 301 302 303 304 305 305 305 307 308 309 309 310 310 312 311 309
296 296 296 295 295 294 294 294 294 295 295 295 295 295 296 296 296 297 297 297 297 297 297 297 298 299 300 302 302 301 302 304 305 304 305 306 307 308 309 309 309 311 310
295 295 295 294 294 294 294 294 294 295 295 294 294 295 296 295 297 297 297 298 298 298 297 297 297 298 299 303 303 304 304 303 303 304 305 305 306 307 307 307 308 306 306
295 294 294 293 293 294 294 294 294 294 294 294 295 295 295 295 296 298 298 297 297 297 298 298 298 298 299 300 300 302 303 303 304 304 304 305 306 307 307 306 307 307 306
294 294 293 293 293 294 294 293 294 294 294 295 295 295 296 296 297 297 297 297 297 297 298 298 298 299 299 300 300 300 300 300 300 301 303 304 305 306 306 306 305 307 307
294 293 293 293 293 293 293 294 294 294 294 295 295 295 296 296 297 297 297 297 297 297 297 298 298 298 298 301 301 300 299 299 301 301 304 304 304 304 305 306 305 307 305
293 293 293 293 293 293 294 294 294 294 295 295 295 295 296 297 297 297 297 297 296 297 297 297 299 299 299 300 301 300 298 299 301 302 303 304 305 306 306 306 306 306 304
292 293 293 293 293 294 294 294 294 295 295 296 296 296 296 296 297 297 297 297 297 297 297 298 298 299 300 301 301 299 298 300 301 302 302 302 301 301 300 305 306 306 306
292 293 293 293 294 294 294 295 295 295 295 295 296 296 296 297 297 297 298 298 297 297 297 298 298 299 300 301 302 302 302 301 301 302 301 301 301 300 301 302 304 306 307
293 293 293 293 293 294 295 294 294 295 295 296 297 298 297 297 297 297 298 299 299 298 297 298 298 299 300 301 301 302 302 302 301 300 300 301 301 301 302 303 305 306 306
293 293 293 293 294 294 294 294 294 294 295 300 302 301 300 299 298 298 297 297 298 298 297 298 299 299 299 299 299 299 300 301 301 301 301 301 301 302 303 305 305 306 306
293 293 293 293 294 294 294 294 294 296 299 301 301 301 300 300 300 301 301 297 296 296 296 297 299 299 299 298 298 298 299 300 302 301 302 302 303 303 304 305 305 305 305
293 293 293 294 293 293 293 293 296 300 300 300 301 300 300 299 300 302 304 303 297 296 296 297 298 298 298 299 299 299 300 300 301 302 303 303 304 304 304 304 304 304 304
293 293 293 293 293 293 293 294 298 298 299 298 298 299 299 298 298 300 299 298 298 298 297 298 298 298 299 299 298 299 300 301 301 302 303 303 304 304 304 304 304 304 304
293 293 293 293 293 293 293 296 297 297 297 297 297 297 297 297 296 296 296 296 296 297 297 297 297 298 299 300 300 299 299 299 300 301 303 303 304 304 304 304 304 304 303
293 292 293 293 293 293 294 295 296 296 296 295 296 296 295 295 295 295 294 294 294 294 293 293 294 295 297 298 298 300 301 300 300 301 302 302 303 304 303 303 303 303 303
291 292 293 293 292 293 293 295 294 294 294 294 294 296 295 295 295 294 294 294 294 294 294 294 294 295 295 295 296 297 298 299 300 301 301 302 302 302 302 303 303 303 303
291 291 292 292 292 293 293 293 293 293 293 293 294 296 295 295 294 294 293 293 292 292 292 292 293 293 293 294 294 295 296 297 298 299 299 301 301 302 302 302 302 303 303
291 291 291 292 292 292 293 292 292 292 292 293 294 294 294 294 294 293 292 292 291 291 291 291 292 292 292 292 292 292 293 294 296 297 298 298 299 299 300 300 301 302 301
290 291 291 291 292 292 292 292 292 292 293 293 293 293 293 293 292 292 291 291 290 290 290 290 291 291 292 292 292 292 292 292 295 296 298 298 299 300 300 300 301 303 307
290 290 291 291 291 291 291 291 292 292 293 293 293 293 293 293 292 291 291 290 289 288 289 290 290 290 291 292 292 293 294 294 295 297 298 299 299 301 301 305 307 307 307
290 290 290 291 291 291 291 291 292 292 292 292 292 293 293 292 291 291 290 289 288 288 288 289 290 290 291 292 293 294 296 297 298 299 300 301 303 306 307 307 307 307 307
290 290 290 290 291 291 291 291 292 292 292 292 293 293 292 292 291 290 289 289 288 288 288 289 290 290 290 291 293 295 297 299 301 303 305 306 307 306 307 307 307 306 306
Wind_Speed
18 21 22 25 28 29 28 29 31 26 24 30 30 32 33 33 31 30 30 31 32 32 29 30 31 30 33 33 34 34 26 23 14 17 24 28 23 23 19 21 23 29 29
21 24 27 28 23 25 32 29 26 29 31 32 34 31 32 33 30 28 30 31 31 32 31 30 33 28 33 32 30 33 29 30 24 8 23 28 22 20 20 24 17 23 31
26 27 27 26 30 32 23 32 33 34 33 32 33 31 34 33 33 33 33 33 32 32 32 28 31 28 28 26 30 28 30 26 24 16 19 21 20 13 11 21 22 11 21
26 26 26 28 24 26 31 32 34 33 34 33 34 35 35 35 33 35 34 34 34 33 33 29 29 26 29 22 28 21 25 25 25 17 16 16 16 14 11 9 16 14 14
21 27 29 28 30 32 32 32 33 33 34 35 35 36 35 33 35 35 30 36 33 30 27 27 26 29 31 29 27 22 23 21 20 17 12 11 11 10 14 8 7 18 21
27 27 30 31 32 32 31 32 36 35 35 36 36 35 34 35 36 35 39 34 32 33 28 28 31 30 32 30 27 24 15 18 25 17 6 7 16 17 16 13 9 5 4
26 29 30 29 32 31 32 36 37 35 36 35 35 34 35 35 35 38 34 34 29 28 26 27 26 26 29 24 29 24 19 19 13 10 10 12 17 20 16 14 12 13 9
27 27 26 30 32 33 36 36 36 36 36 35 36 36 35 35 35 31 32 29 27 21 22 25 24 22 24 22 21 19 11 20 20 25 28 35 17 11 14 15 12 13 14
25 25 29 32 33 36 37 37 37 37 36 36 37 35 33 34 31 33 29 26 23 20 21 20 23 23 21 22 21 16 17 15 15 32 32 21 16 13 15 15 15 9 6
24 28 31 33 35 37 38 37 37 37 38 36 37 36 35 34 32 29 27 24 20 18 20 20 19 20 22 22 21 15 10 18 19 27 20 16 14 12 15 19 21 16 8
28 30 32 36 35 37 36 37 37 35 36 36 35 35 32 31 29 27 25 24 20 18 17 17 21 18 20 20 19 13 23 27 19 17 19 18 16 15 19 19 24 27 21
29 31 34 36 36 35 36 35 35 34 33 34 34 31 27 26 26 24 23 23 22 18 17 19 18 16 16 16 17 20 20 20 20 20 21 19 18 18 20 21 21 28 28
29 32 34 36 35 34 33 34 32 30 29 30 28 24 24 23 23 24 23 23 23 18 17 17 16 14 12 9 11 14 15 15 20 20 19 18 18 18 18 18 21 25 26
29 32 33 33 36 35 33 29 27 26 27 24 23 21 20 22 22 24 25 23 21 19 17 18 18 16 14 12 10 10 8 11 13 14 16 17 18 19 19 20 23 23 20
29 31 31 31 31 32 30 28 28 28 26 23 23 25 23 23 26 28 25 26 22 22 11 10 13 14 14 15 16 15 16 15 13 15 18 20 21 21 20 22 22 20 15
28 29 30 31 30 28 28 29 31 23 24 25 28 30 29 34 39 32 13 21 24 17 13 9 10 13 14 14 15 17 19 17 18 18 20 20 19 19 17 18 18 16 15
27 29 30 29 27 26 26 25 20 22 21 24 27 29 32 36 40 27 29 25 19 15 8 7 9 11 13 14 17 20 17 16 18 18 20 20 20 20 17 17 18 17 16
27 29 28 27 26 25 24 23 20 18 18 22 25 27 29 31 36 36 26 24 18 17 12 10 9 2 12 17 17 17 19 22 22 21 20 23 23 21 17 18 19 19 17
25 27 28 26 25 25 22 20 18 18 17 19 21 23 24 25 29 31 31 26 19 18 15 14 12 11 11 9 7 9 17 20 21 21 21 20 21 21 20 20 19 19 16
24 27 27 25 24 23 21 18 17 16 16 17 19 19 20 23 23 23 25 23 21 19 16 15 14 13 12 10 9 12 14 14 14 16 17 18 21 22 21 19 17 16 16
22 25 27 24 22 22 19 17 17 16 16 17 18 22 23 21 19 21 22 22 21 20 19 17 16 15 14 13 12 8 5 5 8 9 10 14 15 16 18 19 18 16 13
21 23 24 23 22 21 19 17 17 16 17 17 18 20 24 22 19 20 21 21 22 21 22 20 17 16 14 12 9 5 1 4 8 12 14 15 14 14 14 14 13 17 16
20 22 23 22 22 22 19 17 16 17 16 17 17 18 19 20 21 21 21 21 22 21 21 21 22 20 15 14 12 8 4 5 10 11 15 17 18 18 18 18 21 21 19
18 20 21 21 21 20 18 17 18 18 18 17 17 17 19 20 19 19 21 22 23 24 23 23 23 21 20 21 18 13 3 6 11 15 15 18 18 20 20 19 21 22 22
16 19 19 21 20 19 19 18 17 17 17 17 17 18 20 20 19 19 21 24 25 25 25 25 27 25 23 24 26 20 8 7 11 13 15 16 15 19 23 23 23 23 24
14 17 18 19 19 19 19 18 17 16 16 18 18 19 20 19 18 19 22 25 26 25 25 25 28 29 27 28 32 23 15 11 14 14 17 25 27 26 26 26 25 22 22
Wind_Direction
335 332 328 324 321 318 316 317 317 312 316 312 314 310 305 298 289 287 287 286 285 286 277 265 257 261 254 247 252 257 243 245 242 244 243 255 252 260 259 239 232 230 243
334 329 326 324 322 320 318 319 318 318 310 306 303 301 300 298 290 288 289 286 282 280 279 272 275 268 255 244 243 244 239 240 264 207 243 252 246 248 241 233 230 228 232
331 328 322 317 318 320 312 317 317 310 303 301 298 293 296 293 291 289 285 284 279 277 273 268 264 273 260 252 249 246 235 227 242 220 221 236 238 228 229 229 226 243 240
326 323 322 323 325 320 316 310 308 304 300 298 295 292 294 291 287 288 284 281 276 272 268 266 271 264 265 247 275 247 237 229 232 238 228 217 218 210 213 223 223 231 220
331 328 322 317 320 315 307 305 308 303 302 297 296 294 292 288 288 285 279 280 271 273 269 264 259 263 265 257 256 252 242 242 243 229 221 193 183 184 198 204 215 237 222
330 324 318 315 315 309 306 307 309 301 301 297 294 291 287 286 290 287 287 283 275 266 255 261 257 259 254 248 254 253 251 237 218 218 196 199 195 197 199 203 218 224 198
322 318 314 315 312 310 308 309 306 301 300 297 293 288 285 286 287 288 283 283 278 271 263 253 255 255 251 250 249 256 248 253 230 231 219 247 208 209 209 197 209 231 235
319 321 321 316 314 314 310 306 305 302 297 294 291 287 281 285 293 289 290 289 281 282 266 259 259 256 250 252 245 252 244 227 237 249 225 227 220 192 223 218 229 234 242
326 323 319 316 316 313 308 305 302 299 297 292 288 287 283 283 280 287 284 281 275 275 264 260 254 257 246 244 240 238 252 250 249 234 241 231 219 216 225 225 223 233 209
324 319 318 319 316 309 306 305 302 300 295 294 290 286 284 284 281 285 283 276 271 265 262 263 253 244 244 243 243 229 258 246 227 207 203 195 196 205 214 227 228 212 208
323 315 317 319 315 311 308 306 304 302 302 299 293 288 282 279 276 282 274 268 259 244 250 243 249 250 243 243 241 239 220 206 216 202 208 221 237 242 241 227 223 223 214
319 317 317 319 316 312 310 309 311 309 306 299 297 291 281 278 273 278 271 264 260 243 228 239 243 246 247 247 237 206 201 191 189 197 204 210 223 240 240 235 232 231 231
325 322 319 319 317 316 316 313 313 312 307 304 302 299 289 281 271 267 268 265 253 242 227 231 242 241 242 237 218 221 215 211 201 193 203 219 235 249 248 231 235 225 225
324 322 321 320 320 321 319 316 313 309 308 318 331 339 321 295 282 271 257 249 253 243 231 221 221 223 231 250 258 258 253 222 218 215 227 242 247 243 240 226 220 217 212
326 324 323 321 322 320 321 319 316 314 317 338 353 354 345 338 331 310 268 227 215 225 209 209 214 218 226 233 244 245 243 237 218 226 229 228 228 228 217 220 208 191 194
327 327 323 325 323 323 322 322 338 339 353 356 2 4 4 360 355 351 326 207 177 189 181 183 204 217 222 230 237 243 238 226 234 240 233 224 207 202 198 208 215 188 189
327 325 326 325 325 326 324 321 327 348 359 2 3 5 11 14 19 55 76 112 137 153 170 188 213 222 221 228 243 236 220 220 221 228 230 214 198 200 196 195 191 189 197
329 331 328 325 328 326 325 328 345 352 355 358 8 12 20 25 32 41 50 61 57 62 72 77 54 53 240 242 238 223 223 232 230 222 205 199 197 196 194 191 185 179 172
335 331 332 333 333 334 334 342 354 356 2 359 2 19 27 30 34 42 45 47 49 48 49 51 50 45 45 55 80 198 218 217 213 209 213 218 214 203 191 178 167 170 170
339 340 340 339 338 341 340 351 357 2 6 4 2 26 24 23 30 31 33 35 37 37 36 36 34 45 54 59 63 70 91 110 134 168 166 175 174 169 168 164 165 176 188
344 342 344 344 344 344 346 355 1 6 7 7 10 29 33 30 31 38 37 34 33 30 26 26 31 36 37 40 49 67 105 133 141 131 128 140 154 161 164 164 176 191 204
349 346 345 345 345 348 353 1 5 11 10 9 16 23 29 26 36 42 36 31 26 24 28 28 26 29 30 34 32 32 115 131 165 178 181 181 187 191 192 190 195 203 226
354 352 349 348 350 353 356 8 14 13 14 18 25 28 31 30 44 42 35 27 22 20 19 19 23 24 26 21 9 357 324 214 194 179 185 190 191 190 190 195 202 216 159
356 356 352 352 355 358 358 8 17 23 23 25 32 33 27 36 48 38 32 28 24 22 28 27 22 22 23 17 6 13 355 198 192 196 193 191 189 188 205 195 154 146 143
3 2 359 355 355 356 2 13 22 27 25 27 28 28 45 47 44 39 34 29 25 24 25 21 21 23 23 18 21 36 64 139 169 180 184 184 190 166 142 136 135 138 141
7 8 3 1 1 6 9 12 21 27 29 30 33 39 42 47 45 38 34 32 25 21 22 18 21 26 24 26 32 40 64 109 137 148 149 145 140 133 131 132 136 135 134